Location: Newark
(7.0858°N, 171.3717°E)
Time: 07:28:06
(UTC+00:00)

Courier 1B - Pass Details

Date: 28 November 2020
Orbit: 962 x 1209 km, 28.3° (Epoch: 20 January)

Event Time Altitude Azimuth Distance (km) Brightness Sun altitude
Rises 18:28:30 0° 292° (WNW) 4,074 - -1.3°
Exits shadow 18:28:53 - 291° (WNW) 3,945 9.9 -1.2°
Reaches altitude 10° 18:31:22 10° 288° (WNW) 3,126 9.5 -0.6°
Maximum altitude 18:39:03 59° 211° (SSW) 1,375 8.3 1.2°
Drops below altitude 10° 18:46:42 10° 133° (SE) 3,110 11.7 2.9°
Sets 18:49:33 0° 129° (SE) 4,052 12.5 3.6°
